This demonstration page uses our WeatherBlox Daily Observations layout. Learn more.

Left ArrowRight Arrow

39.12711, -84.51439

Hourly Observations for June 10, 2021

Temp ( °F °C ) Dew Point ( °F °C ) Humidity (%) Winds ( mph kmh ) Pressure ( in mb ) Visibility ( mi km ) Precip ( " mm )
12:53 am 00:53 Cloudy 70 21.1 69 20.6 97 97 N N/A 29.99 1016 8 13 N/A
1:37 am 01:37 Cloudy 70 21.1 68 20 93 93 NNE 3 6 29.99 1015 8 13 N/A
1:53 am 01:53 Cloudy 70 21.1 69 20.6 97 97 N N/A 29.99 1016 10 16 N/A
2:53 am 02:53 Cloudy 70 21.1 69 20.6 97 97 N N/A 29.97 1015 9 14 N/A
3:15 am 03:15 Cloudy 70 21.1 69 20.6 97 97 N N/A 29.97 1015 9 14 N/A
3:29 am 03:29 Cloudy 71 21.7 69 20.6 94 94 N N/A 29.97 1015 9 14 N/A
3:53 am 03:53 Cloudy 71 21.7 69 20.6 94 94 N N/A 29.96 1015 9 14 N/A
4:32 am 04:32 Cloudy 70 21.1 68 20 93 93 N N/A 29.96 1014 7 11 N/A
4:49 am 04:49 Cloudy with Mist and Fog 70 21 70 21 100 100 N N/A 29.96 1014 6 10 N/A
4:53 am 04:53 Cloudy 70 21.1 69 20.6 97 97 NE 3 6 29.96 1014 8 13 N/A
5:12 am 05:12 Cloudy 70 21.1 68 20 93 93 NNE 5 7 29.96 1014 8 13 N/A
5:53 am 05:53 Cloudy 70 21.1 69 20.6 97 97 NNE 3 6 29.95 1014 10 16 N/A
6:10 am 06:10 Cloudy 71 21.7 69 20.6 94 94 NNE 3 6 29.95 1014 10 16 N/A
6:39 am 06:39 Cloudy 71 21.7 69 20.6 94 94 NNE 3 6 29.96 1014 10 16 N/A
6:53 am 06:53 Cloudy with Mist and Fog 71 21.7 69 20.6 94 94 N N/A 29.96 1014 6 10 N/A
7:53 am 07:53 Cloudy with Mist and Fog 72 22.2 69 20.6 91 91 NNE 3 6 29.95 1014 6 10 N/A
8:53 am 08:53 Mostly Cloudy 74 23.3 70 21.1 88 88 N N/A 29.96 1014 10 16 N/A
9:53 am 09:53 Cloudy 76 24.4 70 21.1 82 82 N N/A 29.96 1014 10 16 N/A
10:53 am 10:53 Mostly Cloudy 76 24.4 69 20.6 79 79 SW 3 6 29.94 1014 10 16 N/A
11:22 am 11:22 Partly Cloudy 79 26.1 71 21.7 77 77 VRB 3 6 29.93 1013 10 16 N/A
11:53 am 11:53 Mostly Cloudy 79 26.1 70 21.1 74 74 SSW 3 6 29.93 1014 10 16 N/A
12:53 pm 12:53 Partly Cloudy 79 26.1 69 20.6 72 72 N N/A 29.93 1013 10 16 N/A
1:53 pm 13:53 Cloudy 78 25.6 71 21.7 79 79 S 3 6 29.92 1013 8 13 0.00 0.00
2:53 pm 14:53 Cloudy 80 26.7 70 21.1 71 71 N 6 9 29.90 1013 10 16 N/A
3:53 pm 15:53 Cloudy 81 27.2 69 20.6 67 67 N N/A 29.88 1012 10 16 N/A
4:53 pm 16:53 Cloudy 81 27.2 69 20.6 67 67 VRB 3 6 29.86 1011 10 16 N/A
5:53 pm 17:53 Mostly Cloudy 81 27.2 68 20 65 65 WSW 3 6 29.86 1011 10 16 N/A
6:53 pm 18:53 Cloudy 83 28.3 65 18.3 55 55 N N/A 29.85 1011 10 16 N/A
7:53 pm 19:53 Mostly Cloudy 78 25.6 73 22.8 85 85 SSW 3 6 29.84 1011 10 16 N/A
8:53 pm 20:53 Partly Cloudy 76 24.4 71 21.7 85 85 N N/A 29.84 1011 10 16 N/A
9:53 pm 21:53 Clear 76 24.4 70 21.1 82 82 N N/A 29.84 1011 10 16 N/A
10:53 pm 22:53 Clear 72 22.2 71 21.7 97 97 SSW 3 6 29.85 1011 10 16 N/A
11:53 pm 23:53 Clear 71 21.7 70 21.1 96 96 N N/A 29.85 1011 7 11 N/A

Powered by AerisWeather